Flag for U.S.A. Weather past 2 weeks in Spokane, Washington, U.S.A.

Now
96 °F

Sunny.


Feels Like: 91 °F
Forecast: 63 / 97 °F
Wind: 5 mph from North

Location: Felts Field

Current Time: Jul 31, 2014 at 1:40:33 PM

Latest Report: Jul 31, 2014 at 12:53 PM


Visibility: 10 mi

Pressure: 29.97 "Hg

Humidity: 10%

Dew point: 32 °F

Location of SpokaneLocation

Historic Weather in Spokane — Graph

°F

Spokane temperature yesterday

Maximum temperature yesterday: 100 °F (at 5:53 PM)
Minimum temperature yesterday: 65 °F (at 4:53 AM)
Average temperature yesterday: 82 °F

Past Weeks' High & Low Weather Summary

 TemperatureHumidityPressure
High100 °F (Jul 16, 3:53 PM)90% (Jul 22, 7:53 AM)30.14 "Hg (Jul 22, 7:53 AM)
Low51 °F (Jul 26, 4:53 AM)9% (Jul 30, 4:53 PM)29.67 "Hg (Jul 17, 7:53 PM)
Average75 °F40%29.94 "Hg
* Reported Jul 16 11:53 AM — Jul 31 11:53 AM, Spokane, Weather by CustomWeather, © 2014

Note: Actual official high and low records may vary slightly from our data, if they occured in-between our weather recording intervals... More about our weather records

Advertising

Spokane weather history for previous 24 hours

 ConditionsComfort  
Time TempWeatherWind HumidityBarometerVisibility
11:53 AM
Jul 31
93 °FSunny.3 mph20%29.98 "Hg10 mi
10:53 AM89 °FSunny.No wind24%30.00 "Hg10 mi
9:53 AM84 °FSunny.3 mph31%30.00 "Hg10 mi
8:53 AM77 °FSunny.7 mph37%30.01 "Hg10 mi
7:53 AM72 °FSunny.No wind46%30.01 "Hg10 mi
6:53 AM68 °FSunny.No wind55%29.99 "Hg10 mi
5:53 AM63 °FClear.5 mph58%29.98 "Hg10 mi
4:53 AM65 °FClear.5 mph52%29.97 "Hg10 mi
3:53 AM65 °FClear.6 mph49%29.97 "Hg10 mi
2:53 AM64 °FClear.5 mph47%29.97 "Hg10 mi
1:53 AM68 °FClear.5 mph44%29.96 "Hg10 mi
12:53 AM68 °FClear.6 mph38%29.96 "Hg10 mi
11:53 PM
Jul 30
71 °FClear.No wind31%29.95 "Hg10 mi
10:53 PM73 °FClear.6 mph36%29.94 "Hg10 mi
9:53 PM78 °FClear.No wind27%29.94 "Hg10 mi
8:53 PM82 °FSunny.3 mph24%29.92 "Hg10 mi
7:53 PM92 °FSunny.5 mph15%29.90 "Hg10 mi
6:53 PM98 °FSunny.3 mph10%29.90 "Hg10 mi
5:53 PM100 °FSunny.10 mph9%29.90 "Hg10 mi
4:53 PM99 °FSunny.5 mph9%29.92 "Hg10 mi
3:53 PM99 °FSunny.No wind11%29.93 "Hg10 mi
2:53 PM97 °FSunny.7 mph14%29.95 "Hg10 mi
1:53 PM94 °FSunny.9 mph18%29.98 "Hg10 mi
Weather by CustomWeather, © 2014

See weather overviewHow to use our weather pages